Weather History for KLRJ - April, 2013

Change the Weather History Date:

Thursday, April 11, 2013

  Actual Average (KSUX) Record (KSUX)
Temperature  
Mean Temperature 32 °F 48 °F  
Max Temperature 33 °F 61 °F 89 °F (1968)
Min Temperature 30 °F 35 °F 16 °F (1940)
Degree Days  
Heating Degree Days 34 18  
Month to date heating degree days 216  
Since 1 July heating degree days 6394  
Cooling Degree Days 0 0  
Month to date cooling degree days 0  
Year to date cooling degree days 0  
Moisture  
Dew Point 31 °F    
Average Humidity 94    
Maximum Humidity 100    
Minimum Humidity 87    
Precipitation  
Precipitation 0.12 in 0.10 in 1.24 in (2001)
Month to date precipitation 0.98  
Year to date precipitation 4.27  
Snow  
Snow 0.00 in 0.00 in 5.00 in (1997)
Month to date snowfall 1.0  
Since 1 July snowfall 34.0  
Snow Depth -    
Sea Level Pressure  
Sea Level Pressure 29.65 in    
Wind  
Wind Speed 4 mph (NNW)    
Max Wind Speed 15 mph    
Max Gust Speed -    
Visibility 3 miles    
Events Rain , Snow    
T = Trace of Precipitation, MM = Missing Value Source: NWS Daily Summary

Daily Weather History Graph

Daily Weather History Graph

Search for Another Location

Airport or City:

Trip Planner

Search our weather history database for the weather conditions in past years. The results will help you decide how hot, cold, wet, or windy it might be!

Date:

Astronomy

Apr. 11, 2013 Rise Set
Actual Time 6:49 AM CDT 8:02 PM CDT
Civil Twilight 6:20 AM CDT 8:31 PM CDT
Nautical Twilight 5:45 AM CDT 9:06 PM CDT
Astronomical Twilight 5:08 AM CDT 9:43 PM CDT
Moon 7:19 AM CDT (4/11) 9:40 PM CDT (4/11)
Length of Visible Light 14h 11m
Length of Day
13h 13m
New Moon, 2% of the Moon is Illuminated
Apr 11
New Moon
Apr 18
First Quarter
Apr 25
Full
May 2
Last Quarter
May 9
New

Hourly Weather History & Observations

Time (CDT) Temp. Windchill Dew Point Humidity Pressure Visibility Wind Dir Wind Speed Gust Speed Precip Events Conditions
12:15 AM 32.0 °F 27.5 °F 30.2 °F 93% 29.79 in 1.0 mi NW 4.6 mph - 0.02 in Snow Snow
12:35 AM 30.2 °F 26.7 °F 30.2 °F 100% 29.79 in 1.2 mi NW 3.5 mph - 0.03 in Snow Light Snow
12:55 AM 30.2 °F - 30.2 °F 100% 29.78 in 1.2 mi Calm Calm - 0.04 in Snow Light Snow
1:15 AM 30.2 °F 26.7 °F 30.2 °F 100% 29.77 in 1.8 mi NNW 3.5 mph - N/A Snow Light Snow
1:35 AM 30.2 °F 26.7 °F 30.2 °F 100% 29.76 in 1.2 mi NNW 3.5 mph - 0.01 in Snow Snow
1:55 AM 30.2 °F 26.7 °F 30.2 °F 100% 29.76 in 1.2 mi NNW 3.5 mph - 0.02 in Snow Light Snow
2:15 AM 30.2 °F - 30.2 °F 100% 29.74 in 1.2 mi Calm Calm - N/A Snow Light Snow
2:35 AM 30.2 °F - 30.2 °F 100% 29.72 in 1.5 mi Calm Calm - 0.01 in Snow Light Snow
2:55 AM 32.0 °F - 30.2 °F 93% 29.71 in 3.0 mi Calm Calm - 0.02 in Snow Light Snow
3:15 AM 32.0 °F - 30.2 °F 93% 29.71 in 4.0 mi Calm Calm - N/A Snow Light Snow
3:35 AM 32.0 °F - 30.2 °F 93% 29.69 in 3.0 mi Calm Calm - N/A Snow Light Snow
3:55 AM 32.0 °F - 30.2 °F 93% 29.68 in 3.0 mi Calm Calm - N/A Snow Light Snow
4:15 AM 32.0 °F - 30.2 °F 93% 29.67 in 3.0 mi Calm Calm - N/A Snow Light Snow
4:35 AM 30.2 °F - 30.2 °F 100% 29.66 in 4.0 mi Calm Calm - N/A Snow Light Snow
4:55 AM 30.2 °F - 30.2 °F 100% 29.65 in 5.0 mi Calm Calm - N/A   Overcast
5:15 AM 32.0 °F - 30.2 °F 93% 29.65 in 7.0 mi Calm Calm - N/A   Overcast
5:35 AM 32.0 °F - 30.2 °F 93% 29.64 in 5.0 mi Calm Calm - N/A   Overcast
5:55 AM 30.2 °F - 30.2 °F 100% 29.62 in 5.0 mi Calm Calm - N/A   Overcast
6:15 AM 32.0 °F - 30.2 °F 93% 29.62 in 7.0 mi Calm Calm - N/A   Overcast
6:35 AM 32.0 °F - 30.2 °F 93% 29.61 in 2.5 mi Calm Calm - N/A   Overcast
6:55 AM 32.0 °F - 30.2 °F 93% 29.62 in 1.0 mi Calm Calm - N/A   Overcast
7:15 AM 32.0 °F - 32.0 °F 100% 29.62 in 1.0 mi Calm Calm - N/A   Light Drizzle
7:35 AM 32.0 °F - 32.0 °F 100% 29.62 in 1.5 mi Calm Calm - N/A   Light Drizzle
7:55 AM 33.8 °F - 32.0 °F 93% 29.63 in 1.5 mi Calm Calm - N/A   Light Drizzle
8:15 AM 32.0 °F - 32.0 °F 100% 29.63 in 0.8 mi Calm Calm - N/A   Overcast
8:35 AM 33.8 °F - 32.0 °F 93% 29.62 in 0.5 mi Calm Calm - N/A   Overcast
8:55 AM 32.0 °F - 32.0 °F 100% 29.62 in 0.8 mi Calm Calm - N/A Rain Light Rain
9:15 AM 33.8 °F - 32.0 °F 93% 29.61 in 1.2 mi Calm Calm - N/A   Light Drizzle
9:35 AM 33.8 °F - 32.0 °F 93% 29.61 in 2.0 mi Calm Calm - N/A   Overcast
9:55 AM 33.8 °F - 32.0 °F 93% 29.61 in 2.0 mi Calm Calm - N/A   Overcast
10:15 AM 33.8 °F 30.8 °F 32.0 °F 93% 29.62 in 4.0 mi NE 3.5 mph - N/A   Overcast
10:35 AM 33.8 °F 29.6 °F 32.0 °F 93% 29.62 in 1.2 mi NE 4.6 mph - N/A   Overcast
10:55 AM 33.8 °F 30.8 °F 32.0 °F 93% 29.62 in 4.0 mi NE 3.5 mph - N/A   Overcast
11:15 AM 33.8 °F 29.6 °F 32.0 °F 93% 29.62 in 2.5 mi NE 4.6 mph - N/A   Overcast
11:35 AM 33.8 °F 30.8 °F 32.0 °F 93% 29.62 in 2.0 mi NNE 3.5 mph - N/A Rain Light Rain
12:15 PM 33.8 °F 30.8 °F 32.0 °F 93% 29.62 in 2.5 mi NNE 3.5 mph - N/A   Overcast
12:35 PM 33.8 °F 30.8 °F 32.0 °F 93% 29.61 in 5.0 mi North 3.5 mph - N/A   Overcast
12:55 PM 33.8 °F 30.8 °F 32.0 °F 93% 29.60 in 3.0 mi North 3.5 mph - N/A   Overcast
1:15 PM 33.8 °F 29.6 °F 32.0 °F 93% 29.60 in 3.0 mi North 4.6 mph - N/A   Overcast
1:35 PM 33.8 °F 29.6 °F 32.0 °F 93% 29.60 in 4.0 mi NNW 4.6 mph - N/A   Overcast
1:55 PM 33.8 °F 27.0 °F 32.0 °F 93% 29.60 in 3.0 mi NNW 8.1 mph - N/A   Overcast
2:15 PM 33.8 °F 28.6 °F 32.0 °F 93% 29.60 in 2.5 mi North 5.8 mph - N/A Rain Rain
2:35 PM 33.8 °F 26.4 °F 32.0 °F 93% 29.60 in 3.0 mi NNW 9.2 mph - 0.01 in Rain Light Rain
2:55 PM 33.8 °F 27.0 °F 33.8 °F 100% 29.60 in 4.0 mi NNW 8.1 mph - 0.01 in Rain Light Rain
3:15 PM 33.8 °F 26.4 °F 33.8 °F 100% 29.61 in 5.0 mi North 9.2 mph - N/A Rain Light Rain
3:35 PM 33.8 °F 25.8 °F 32.0 °F 93% 29.60 in 2.5 mi North 10.4 mph - N/A Rain Rain
3:55 PM 33.8 °F 27.7 °F 33.8 °F 100% 29.61 in 2.0 mi North 6.9 mph - 0.01 in Rain Rain
4:15 PM 33.8 °F 28.6 °F 32.0 °F 93% 29.61 in 2.5 mi North 5.8 mph - N/A Rain Light Rain
4:35 PM 33.8 °F 28.6 °F 33.8 °F 100% 29.62 in 3.0 mi North 5.8 mph - N/A Rain Light Rain
4:55 PM 33.8 °F 27.0 °F 32.0 °F 93% 29.62 in 2.0 mi North 8.1 mph - 0.01 in Rain Rain
5:15 PM 33.8 °F 28.6 °F 32.0 °F 93% 29.62 in 2.5 mi NNW 5.8 mph - N/A Rain Light Rain
5:35 PM 33.8 °F 27.0 °F 32.0 °F 93% 29.63 in 1.5 mi NNW 8.1 mph - N/A Rain Rain
5:55 PM 33.8 °F 26.4 °F 32.0 °F 93% 29.63 in 1.2 mi NNW 9.2 mph - N/A   Overcast
6:15 PM 33.8 °F 27.7 °F 32.0 °F 93% 29.63 in 1.2 mi NW 6.9 mph - 0.01 in Snow Light Snow
6:35 PM 33.8 °F 26.4 °F 32.0 °F 93% 29.63 in 1.5 mi NNW 9.2 mph - 0.01 in Snow Light Snow
6:55 PM 33.8 °F 25.8 °F 30.2 °F 87% 29.63 in 1.2 mi NNW 10.4 mph - 0.01 in Snow Light Snow
7:15 PM 33.8 °F 26.4 °F 30.2 °F 87% 29.64 in 1.5 mi NNW 9.2 mph - N/A Snow Light Snow
7:35 PM 33.8 °F 24.8 °F 30.2 °F 87% 29.63 in 5.0 mi NW 12.7 mph - N/A Snow Light Snow
7:55 PM 33.8 °F 25.8 °F 30.2 °F 87% 29.64 in 4.0 mi NW 10.4 mph - N/A Snow Light Snow
8:15 PM 33.8 °F 25.8 °F 30.2 °F 87% 29.64 in 7.0 mi NW 10.4 mph - N/A   Overcast
8:35 PM 33.8 °F 25.8 °F 30.2 °F 87% 29.65 in 4.0 mi NW 10.4 mph - N/A Snow Light Snow
8:55 PM 32.0 °F 23.6 °F 30.2 °F 93% 29.65 in 2.5 mi NW 10.4 mph - N/A Snow Light Snow
9:15 PM 32.0 °F 23.0 °F 30.2 °F 93% 29.66 in 3.0 mi NW 11.5 mph - N/A Snow Light Snow
9:35 PM 32.0 °F 21.6 °F 30.2 °F 93% 29.66 in 2.5 mi NW 15.0 mph - N/A   Overcast
9:55 PM 32.0 °F 22.5 °F 30.2 °F 93% 29.67 in 2.5 mi NW 12.7 mph - N/A   Overcast
10:15 PM 32.0 °F 22.5 °F 30.2 °F 93% 29.67 in 2.5 mi NW 12.7 mph - N/A   Overcast
10:35 PM 32.0 °F 23.6 °F 30.2 °F 93% 29.68 in 2.5 mi NNW 10.4 mph - N/A   Drizzle
10:55 PM 32.0 °F 23.0 °F 30.2 °F 93% 29.68 in 2.0 mi North 11.5 mph - N/A   Overcast
11:15 PM 32.0 °F 24.2 °F 30.2 °F 93% 29.68 in 3.0 mi NNW 9.2 mph - N/A   Overcast
11:35 PM 33.8 °F 25.8 °F 30.2 °F 87% 29.68 in 3.0 mi NNW 10.4 mph - N/A   Overcast
11:55 PM 33.8 °F 27.0 °F 30.2 °F 87% 29.69 in 7.0 mi NNW 8.1 mph - N/A   Overcast